Regional Weather Roundup
Issued by NWS

Home | Current Version | Previous Version | Text Only | Print | Product List | Glossary Off
Versions: 1 2 3 4 5 6 7 8 9 10 11 12 13 14 15 16 17 18 19 20 21 22 23 24 25 26 27 28 29 30 31 32 33 34 35 36 37 38 39 40 41 42 43 44 45 46 47 48 49 50

000
ASUS43 KLMK 230802
RWRKY
KENTUCKY REGIONAL WEATHER ROUNDUP
NATIONAL WEATHER SERVICE LOUISVILLE KY
400 AM EDT SAT SEP 23 2017

NOTE "FAIR" INDICATES FEW OR NO CLOUDS BELOW 12,000 FEET
WITH NO SIGNIFICANT WEATHER AND/OR OBSTRUCTIONS TO VISIBILITY.

KYZ001>023-026-027-061>063-070>075-230900-
WESTERN AND SOUTH CENTRAL KENTUCKY

CITY           SKY/WX    TMP DP  RH WIND       PRES   REMARKS
PADUCAH        CLEAR     67  64  90 CALM      30.00F FOG
HENDERSON      CLEAR     65  65 100 NE3       30.02F FOG
OWENSBORO      CLEAR     70  69  97 CALM      30.03F
HOPKINSVILLE   NOT AVBL
BOWLING GREEN  CLEAR     68  67  96 CALM      30.03S
GLASGOW        CLEAR     66  66 100 CALM      30.04S
$$

KYZ024-025-028>034-038-045-046-053-230900-
NORTH CENTRAL KENTUCKY

CITY           SKY/WX    TMP DP  RH WIND       PRES   REMARKS
LOUISVILLE/SDF CLEAR     73  66  78 N3        30.04F
LOUISVILLE/LOU CLEAR     66  66 100 CALM      30.05F
FORT KNOX      CLEAR     67  66  97 CALM      30.03F
$$

KYZ035>037-039>044-047>052-055>060-089>105-230900-
NORTHEAST KENTUCKY

CITY           SKY/WX    TMP DP  RH WIND       PRES   REMARKS
LEXINGTON      CLEAR     64  61  90 S3        30.06F
COVINGTON      CLEAR     67  65  93 CALM      30.07S
FRANKFORT      CLEAR     64  61  90 CALM      30.05F
$$

KYZ054-064>069-076>088-106>120-230900-
SOUTHEAST KENTUCKY

CITY           SKY/WX    TMP DP  RH WIND       PRES   REMARKS
JACKSON        CLEAR     67  64  90 CALM      30.07F
LONDON         PTCLDY    63  61  93 CALM      30.07S FOG
SOMERSET       NOT AVBL
MIDDLESBORO    MOCLDY    63  63 100 CALM      30.09S
MONTICELLO     FOG       61  59  94 CALM      30.07S VSB 3/4
$$




USA.gov is the U.S. government's official web portal to all federal, state and local government web resources and services.